Flag for Ecuador Weather past 2 weeks in Quito, Ecuador

Now
57 °F

Light rain. Broken clouds.


Feels Like: 55 °F
Forecast: 49 / 63 °F
Wind: 9 mph from Southeast

Location: Latacunga Airport

Current Time: May 25, 2015 at 2:51:41 PM

Latest Report: May 25, 2015 at 2:00 PM


Visibility: N/A

Pressure: 30.45 "Hg

Humidity: 88%

Dew point: 54 °F

Location of QuitoLocation

Historic Weather in Quito — Graph

°F

Quito temperature yesterday

Maximum temperature yesterday: 68 °F (at 4:00 PM)
Minimum temperature yesterday: 45 °F (at 4:00 AM)
Average temperature yesterday: 56 °F

Past Weeks' High & Low Weather Summary

 TemperatureHumidityPressure
High70 °F (May 22, 3:00 PM)100% (May 11, 4:00 AM)30.54 "Hg (May 11, 4:00 AM)
Low45 °F (May 24, 4:00 AM)49% (May 22, 2:00 PM)30.33 "Hg (May 10, 3:00 PM)
Average56 °F82%30.44 "Hg
* Reported May 10 1:00 PM — May 25 1:00 PM, Quito, Weather by CustomWeather, © 2015

Note: Actual official high and low records may vary slightly from our data, if they occured in-between our weather recording intervals... More about our weather records

Advertising

Quito weather history for previous 24 hours

 ConditionsComfort  
Time TempWeatherWind HumidityBarometerVisibility
1:00 PM
Mon, May 25
63 °FScattered showers. Partly sunny.5 mph68%30.45 "HgN/A
12:00 PM61 °FScattered showers. Partly sunny.7 mph68%30.45 "HgN/A
11:00 AM61 °FPartly sunny.10 mph68%30.48 "HgN/A
9:00 AM57 °FPartly sunny.5 mph77%30.48 "HgN/A
8:00 AM54 °FOvercast.2 mph88%30.48 "HgN/A
7:00 AM52 °FPartly sunny.2 mph88%30.48 "HgN/A
6:00 AM52 °FPassing clouds.2 mph88%30.45 "HgN/A
5:00 AM52 °FPassing clouds.3 mph94%30.48 "HgN/A
4:00 AM52 °FOvercast.6 mph94%30.45 "HgN/A
3:00 AM52 °FOvercast.5 mph94%30.45 "HgN/A
1:00 AM52 °FOvercast.5 mph94%30.48 "HgN/A
12:00 AM50 °FPassing clouds.7 mph94%30.48 "HgN/A
11:00 PM
Sun, May 24
52 °FPassing clouds.5 mph94%30.48 "HgN/A
10:00 PM54 °FPassing clouds.7 mph88%30.48 "HgN/A
9:00 PM55 °FPassing clouds.6 mph82%30.45 "HgN/A
8:00 PM57 °FPassing clouds.8 mph77%30.39 "HgN/A
7:00 PM61 °FPassing clouds.15 mph68%30.39 "HgN/A
6:00 PM63 °FPassing clouds.15 mph59%30.39 "HgN/A
5:00 PM66 °FScattered clouds.14 mph52%30.36 "HgN/A
4:00 PM68 °FScattered clouds.14 mph49%30.36 "HgN/A
3:00 PM66 °FScattered clouds.14 mph56%30.39 "HgN/A
2:00 PM64 °FBroken clouds.16 mph56%30.39 "HgN/A
Weather by CustomWeather, © 2015

See weather overviewHow to use our weather pages